When you browse on this site, cookies collect data to enhance your experience and personalize the content and advertising you see.
Visit our Privacy Policy to learn more. By continuing to use the site, you agree to this use of cookies and data.
  • în România
  • Lista ţărilor
  • Pe 7 zile
  • Temperatura apei
  • Hartă satelitară
  • Meteo pe hartă
  • Widget-uri
  • user-avatar
    Intrare

    Meteo pe oră la El Paso

    Astăzi, 23 Februarie, Sâmbătă

    Timp Temperatura Precipitaţii Vânt Presiune Umiditate
    00:00 -1°C° 0 mm 9 m/s 659 mmHg 59%
    01:00 -1°C° 0 mm 9 m/s 660 mmHg 60%
    02:00 -2°C° 0 mm 10 m/s 660 mmHg 60%
    03:00 -3°C° 0 mm 10 m/s 660 mmHg 62%
    04:00 -3°C° 0 mm 10 m/s 661 mmHg 64%
    05:00 -2°C° 0 mm 7 m/s 661 mmHg 66%
    06:00 -2°C° 0 mm 8 m/s 662 mmHg 66%
    07:00 -3°C° 0 mm 9 m/s 662 mmHg 66%
    08:00 -3°C° 0 mm 10 m/s 663 mmHg 65%
    09:00 0°C° 0 mm 9 m/s 663 mmHg 58%
    10:00 +1°C° 0 mm 9 m/s 663 mmHg 50%
    11:00 +4°C° 0 mm 8 m/s 664 mmHg 43%
    12:00 +5°C° 0 mm 8 m/s 664 mmHg 39%
    13:00 +6°C° 0 mm 8 m/s 663 mmHg 35%
    14:00 +7°C° 0 mm 8 m/s 663 mmHg 31%
    15:00 +8°C° 0 mm 7 m/s 663 mmHg 31%
    16:00 +8°C° 0 mm 7 m/s 663 mmHg 32%
    17:00 +8°C° 0 mm 6 m/s 663 mmHg 32%
    18:00 +7°C° 0 mm 5 m/s 664 mmHg 37%
    19:00 +7°C° 0 mm 3 m/s 664 mmHg 42%
    20:00 +6°C° 0 mm 2 m/s 665 mmHg 46%
    21:00 +7°C° 0 mm 1 m/s 665 mmHg 49%
    22:00 +6°C° 0 mm 1 m/s 665 mmHg 52%
    23:00 +4°C° 0 mm 0 m/s 665 mmHg 55%

    Mâine, 24 Februarie, Duminică

    Timp Temperatura Precipitaţii Vânt Presiune Umiditate
    00:00 +4°C° 0 mm 0 m/s 665 mmHg 56%
    01:00 +3°C° 0 mm 0 m/s 665 mmHg 58%
    02:00 +3°C° 0 mm 0 m/s 665 mmHg 59%
    03:00 +2°C° 0 mm 0 m/s 664 mmHg 61%
    04:00 +2°C° 0 mm 0 m/s 664 mmHg 62%
    05:00 +2°C° 0 mm 0 m/s 664 mmHg 64%
    06:00 +3°C° 0 mm 0 m/s 664 mmHg 58%
    07:00 +5°C° 0 mm 1 m/s 665 mmHg 52%
    08:00 +6°C° 0 mm 1 m/s 665 mmHg 46%
    09:00 +8°C° 0 mm 1 m/s 666 mmHg 39%
    10:00 +9°C° 0 mm 2 m/s 666 mmHg 32%
    11:00 +10°C° 0 mm 3 m/s 666 mmHg 24%
    12:00 +12°C° 0 mm 3 m/s 665 mmHg 21%
    13:00 +13°C° 0 mm 3 m/s 665 mmHg 18%
    14:00 +15°C° 0 mm 4 m/s 664 mmHg 14%
    15:00 +17°C° 0 mm 3 m/s 664 mmHg 14%
    16:00 +17°C° 0 mm 3 m/s 663 mmHg 13%
    17:00 +18°C° 0 mm 2 m/s 663 mmHg 13%
    18:00 +16°C° 0 mm 2 m/s 663 mmHg 14%
    19:00 +15°C° 0 mm 2 m/s 663 mmHg 16%
    20:00 +14°C° 0 mm 2 m/s 662 mmHg 17%
    21:00 +13°C° 0 mm 2 m/s 662 mmHg 19%
    22:00 +12°C° 0 mm 2 m/s 662 mmHg 20%
    23:00 +10°C° 0 mm 2 m/s 662 mmHg 21%

    Poimâine, 25 Februarie, Luni

    Timp Temperatura Precipitaţii Vânt Presiune Umiditate
    00:00 +10°C° 0 mm 2 m/s 662 mmHg 23%
    01:00 +9°C° 0 mm 2 m/s 661 mmHg 24%
    02:00 +8°C° 0 mm 2 m/s 661 mmHg 26%
    03:00 +8°C° 0 mm 2 m/s 661 mmHg 28%
    04:00 +7°C° 0 mm 2 m/s 660 mmHg 30%
    05:00 +7°C° 0 mm 2 m/s 660 mmHg 32%
    06:00 +7°C° 0 mm 2 m/s 661 mmHg 32%
    07:00 +8°C° 0 mm 2 m/s 661 mmHg 32%
    08:00 +10°C° 0 mm 1 m/s 662 mmHg 31%
    09:00 +12°C° 0 mm 2 m/s 662 mmHg 27%
    10:00 +14°C° 0 mm 2 m/s 663 mmHg 23%
    11:00 +15°C° 0 mm 2 m/s 663 mmHg 19%
    12:00 +17°C° 0 mm 2 m/s 663 mmHg 17%
    13:00 +18°C° 0 mm 2 m/s 662 mmHg 15%
    14:00 +19°C° 0 mm 3 m/s 662 mmHg 13%
    15:00 +19°C° 0 mm 3 m/s 662 mmHg 13%
    16:00 +19°C° 0 mm 4 m/s 662 mmHg 12%
    17:00 +19°C° 0 mm 4 m/s 661 mmHg 12%
    18:00 +18°C° 0 mm 3 m/s 662 mmHg 15%
    19:00 +16°C° 0 mm 2 m/s 662 mmHg 17%
    20:00 +14°C° 0 mm 0 m/s 662 mmHg 19%
    21:00 +14°C° 0 mm 1 m/s 662 mmHg 20%
    22:00 +14°C° 0 mm 1 m/s 662 mmHg 21%
    23:00 +13°C° 0 mm 1 m/s 662 mmHg 22%

    26 Februarie, Marţi

    Timp Temperatura Precipitaţii Vânt Presiune Umiditate
    00:00 +13°C° 0 mm 1 m/s 662 mmHg 24%
    01:00 +12°C° 0 mm 1 m/s 662 mmHg 26%
    02:00 +11°C° 0 mm 1 m/s 661 mmHg 28%
    03:00 +11°C° 0 mm 1 m/s 661 mmHg 30%
    04:00 +11°C° 0 mm 1 m/s 661 mmHg 32%
    05:00 +10°C° 0 mm 1 m/s 661 mmHg 34%
    06:00 +11°C° 0 mm 1 m/s 662 mmHg 34%
    07:00 +11°C° 0 mm 1 m/s 662 mmHg 33%
    08:00 +12°C° 0 mm 1 m/s 663 mmHg 32%
    09:00 +14°C° 0 mm 2 m/s 663 mmHg 28%
    10:00 +16°C° 0 mm 3 m/s 664 mmHg 25%
    11:00 +17°C° 0 mm 4 m/s 664 mmHg 21%
    12:00 +18°C° 0 mm 4 m/s 664 mmHg 18%
    13:00 +19°C° 0 mm 5 m/s 664 mmHg 16%
    14:00 +21°C° 0 mm 5 m/s 663 mmHg 14%
    15:00 +20°C° 0 mm 5 m/s 663 mmHg 14%
    16:00 +20°C° 0 mm 5 m/s 663 mmHg 14%
    17:00 +20°C° 0 mm 5 m/s 662 mmHg 13%
    18:00 +19°C° 0 mm 4 m/s 663 mmHg 15%
    19:00 +18°C° 0 mm 3 m/s 663 mmHg 17%
    20:00 +17°C° 0 mm 3 m/s 663 mmHg 19%
    21:00 +16°C° 0 mm 2 m/s 663 mmHg 21%
    22:00 +15°C° 0 mm 2 m/s 663 mmHg 23%
    23:00 +14°C° 0 mm 2 m/s 663 mmHg 25%

    27 Februarie, Miercuri

    Timp Temperatura Precipitaţii Vânt Presiune Umiditate
    00:00 +14°C° 0 mm 2 m/s 663 mmHg 26%
    01:00 +13°C° 0 mm 2 m/s 662 mmHg 28%
    02:00 +13°C° 0 mm 2 m/s 662 mmHg 29%
    03:00 +12°C° 0 mm 2 m/s 662 mmHg 30%
    04:00 +12°C° 0 mm 2 m/s 662 mmHg 31%
    05:00 +12°C° 0 mm 1 m/s 662 mmHg 31%
    06:00 +12°C° 0 mm 1 m/s 663 mmHg 30%
    07:00 +13°C° 0 mm 1 m/s 663 mmHg 29%
    08:00 +13°C° 0 mm 1 m/s 664 mmHg 28%
    09:00 +15°C° 0 mm 2 m/s 665 mmHg 26%
    10:00 +16°C° 0 mm 2 m/s 665 mmHg 23%
    11:00 +18°C° 0 mm 2 m/s 666 mmHg 20%
    12:00 +19°C° 0 mm 2 m/s 665 mmHg 19%
    13:00 +19°C° 0 mm 2 m/s 664 mmHg 17%
    14:00 +20°C° 0 mm 2 m/s 664 mmHg 16%
    15:00 +20°C° 0 mm 2 m/s 664 mmHg 16%
    16:00 +20°C° 0 mm 3 m/s 664 mmHg 16%
    17:00 +20°C° 0 mm 3 m/s 664 mmHg 16%
    18:00 +20°C° 0 mm 3 m/s 664 mmHg 18%
    19:00 +19°C° 0 mm 2 m/s 664 mmHg 19%
    20:00 +18°C° 0 mm 2 m/s 664 mmHg 21%
    21:00 +17°C° 0 mm 2 m/s 664 mmHg 22%
    22:00 +17°C° 0 mm 2 m/s 664 mmHg 23%
    23:00 +16°C° 0 mm 1 m/s 663 mmHg 24%

    28 Februarie, Joi

    Timp Temperatura Precipitaţii Vânt Presiune Umiditate
    00:00 +15°C° 0 mm 1 m/s 663 mmHg 25%
    01:00 +15°C° 0 mm 2 m/s 662 mmHg 27%
    02:00 +14°C° 0 mm 2 m/s 662 mmHg 28%
    03:00 +13°C° 0 mm 2 m/s 662 mmHg 29%
    04:00 +13°C° 0 mm 2 m/s 661 mmHg 30%
    05:00 +12°C° 0 mm 2 m/s 661 mmHg 32%
    06:00 +13°C° 0 mm 2 m/s 662 mmHg 31%
    07:00 +13°C° 0 mm 2 m/s 662 mmHg 30%
    08:00 +14°C° 0 mm 2 m/s 663 mmHg 29%
    09:00 +16°C° 0 mm 2 m/s 663 mmHg 25%
    10:00 +17°C° 0 mm 3 m/s 663 mmHg 22%
    11:00 +19°C° 0 mm 4 m/s 664 mmHg 18%
    12:00 +21°C° 0 mm 5 m/s 663 mmHg 17%
    13:00 +22°C° 0 mm 5 m/s 663 mmHg 15%
    14:00 +23°C° 0 mm 6 m/s 663 mmHg 14%
    15:00 +23°C° 0 mm 6 m/s 662 mmHg 14%
    16:00 +23°C° 0 mm 6 m/s 662 mmHg 14%
    17:00 +23°C° 0 mm 6 m/s 662 mmHg 14%
    18:00 +21°C° 0 mm 6 m/s 662 mmHg 16%
    19:00 +20°C° 0 mm 5 m/s 662 mmHg 18%
    20:00 +19°C° 0 mm 4 m/s 662 mmHg 20%
    21:00 +18°C° 0 mm 4 m/s 661 mmHg 22%
    22:00 +17°C° 0 mm 4 m/s 661 mmHg 24%
    23:00 +16°C° 0 mm 3 m/s 661 mmHg 26%
    Arată mai mult